TimeEDT,TemperatureF,Dew PointF,Humidity,Sea Level PressureIn,VisibilityMPH,Wind Direction,Wind SpeedMPH,Gust SpeedMPH,PrecipitationIn,Events,Conditions,WindDirDegrees,DateUTC
12:56 AM,39.0,32.0,76,30.66,10.0,NNE,4.6,-,N/A,,Clear,30,2013-04-22 04:56:00
1:56 AM,36.0,30.0,79,30.66,10.0,NNE,3.5,-,N/A,,Clear,20,2013-04-22 05:56:00
2:56 AM,34.0,30.0,85,30.66,10.0,North,5.8,-,N/A,,Clear,10,2013-04-22 06:56:00
3:56 AM,35.1,30.0,82,30.66,10.0,North,5.8,-,N/A,,Clear,10,2013-04-22 07:56:00
4:56 AM,34.0,30.0,85,30.65,10.0,North,6.9,-,N/A,,Clear,10,2013-04-22 08:56:00
5:56 AM,34.0,30.0,85,30.67,10.0,North,6.9,-,N/A,,Clear,10,2013-04-22 09:56:00
6:56 AM,37.0,30.9,79,30.68,10.0,North,6.9,-,N/A,,Clear,10,2013-04-22 10:56:00
7:56 AM,43.0,28.9,58,30.68,10.0,NE,13.8,18.4,N/A,,Clear,50,2013-04-22 11:56:00
8:56 AM,46.0,28.0,50,30.67,10.0,East,11.5,24.2,N/A,,Clear,80,2013-04-22 12:56:00
9:56 AM,50.0,26.1,39,30.68,10.0,East,13.8,24.2,N/A,,Clear,90,2013-04-22 13:56:00
10:56 AM,50.0,28.9,44,30.67,10.0,East,15.0,28.8,N/A,,Clear,100,2013-04-22 14:56:00
11:56 AM,50.0,28.0,43,30.66,10.0,ESE,20.7,34.5,N/A,,Clear,110,2013-04-22 15:56:00
12:56 PM,50.0,30.9,48,30.65,10.0,ESE,18.4,28.8,N/A,,Clear,110,2013-04-22 16:56:00
1:56 PM,51.1,30.9,46,30.62,10.0,East,23.0,28.8,N/A,,Clear,100,2013-04-22 17:56:00
2:56 PM,51.1,30.9,46,30.59,10.0,ESE,19.6,26.5,N/A,,Clear,110,2013-04-22 18:56:00
3:56 PM,50.0,35.1,57,30.60,10.0,East,18.4,26.5,N/A,,Clear,100,2013-04-22 19:56:00
4:56 PM,48.9,36.0,61,30.59,9.0,ESE,19.6,29.9,N/A,,Clear,110,2013-04-22 20:56:00
5:56 PM,48.0,35.1,61,30.58,8.0,East,18.4,26.5,N/A,,Partly Cloudy,100,2013-04-22 21:56:00
6:56 PM,46.0,33.1,61,30.58,9.0,East,16.1,23.0,N/A,,Partly Cloudy,100,2013-04-22 22:56:00
7:56 PM,44.1,33.1,65,30.58,9.0,East,16.1,21.9,N/A,,Clear,80,2013-04-22 23:56:00
8:56 PM,43.0,33.1,68,30.57,10.0,East,12.7,-,N/A,,Clear,80,2013-04-23 00:56:00
9:56 PM,43.0,30.0,60,30.56,10.0,ENE,15.0,-,N/A,,Clear,60,2013-04-23 01:56:00
10:56 PM,41.0,30.0,65,30.55,10.0,ENE,12.7,-,N/A,,Partly Cloudy,60,2013-04-23 02:56:00
11:56 PM,41.0,30.0,65,30.54,9.0,NE,13.8,-,N/A,,Overcast,50,2013-04-23 03:56:00